Regional Weather Roundup
Issued by NWS

Home | Current Version | Previous Version | Text Only | Print | Product List | Glossary On
Versions: 1 2 3 4 5 6 7 8 9 10 11 12 13 14 15 16 17 18 19 20 21 22 23 24 25 26 27 28 29 30 31 32 33 34 35 36 37 38 39 40 41 42 43 44 45 46 47 48 49 50
000
ASUS45 KCYS 280110
RWRWY

WYOMING REGIONAL WEATHER ROUNDUP
NATIONAL WEATHER SERVICE CHEYENNE WY
700 PM MDT MON APR 27 2015

NOTE:  "FAIR" INDICATES FEW OR NO CLOUDS BELOW 12,000 FEET
WITH NO SIGNIFICANT WEATHER AND/OR OBSTRUCTIONS TO VISIBILITY.

WYZ001-280200-
YELLOWSTONE NATIONAL PARK

CITY           SKY/WX    TMP DP  RH WIND       PRES   REMARKS
LK YELLOWSTONE   N/A     45  24  43 CALM      30.31S
W YELLOWSTONE  NOT AVBL

$$
WYZ002>013-054>058-071-098>099-280200-
NORTHERN WYOMING

CITY           SKY/WX    TMP DP  RH WIND       PRES   REMARKS
JACKSON        MOSUNNY   55  28  35 W5        30.24R
CODY           CLOUDY    52  36  54 E10       30.28S
GREYBULL       FAIR      56  32  40 S6        30.26S
WORLAND        FAIR      55  34  45 VRB3      30.27R
SHERIDAN       PTSUNNY   51  37  58 S5        30.29R
BUFFALO        CLOUDY    48  35  60 S6        30.31S
GILLETTE       CLOUDY    52  35  52 N3        30.30R
HULETT         CLOUDY    46  36  66 N5        30.33R
NEWCASTLE      CLOUDY    46  37  71 NW6       30.30S

$$
WYZ014>020-022>026-101>103-280200-
CENTRAL WYOMING

CITY           SKY/WX    TMP DP  RH WIND       PRES   REMARKS
BIG PINEY      FAIR      55  29  36 S8        30.25S
PINEDALE       FAIR      52  30  43 W3        30.26S
DUBOIS         FAIR      45  32  61 SE15G21   30.27R
LANDER         CLOUDY    48  34  58 S3        30.28S
RIVERTON       PTSUNNY   50  33  52 E5        30.29S
CASPER         CLOUDY    44  35  70 E7        30.30S
DOUGLAS        CLOUDY    45  38  76 NE7       30.32R

$$
WYZ021-027>030-104>119-280200-
SOUTHERN WYOMING

CITY           SKY/WX    TMP DP  RH WIND       PRES   REMARKS
EVANSTON       FAIR      52  28  39 E5        30.25S
KEMMERER       FAIR      50  32  50 E6        30.26S
FORT BRIDGER   PTCLDY    54  32  43 SE7       30.29S
ROCK SPRINGS   FAIR      50  34  54 NE7       30.26S
DIXON          FAIR      54  34  47 N16       30.22S
RAWLINS        FAIR      48  34  58 NE12      30.26R
SARATOGA       FAIR      46  36  66 E3        30.24S
LARAMIE        CLOUDY    39  33  79 E13       30.28R WCI  31
CHEYENNE       CLOUDY    43  33  68 NE6       30.29R
TORRINGTON     MOCLDY    49  41  74 NW13      30.27S
PINE BLUFFS    CLOUDY    48  37  66 N9        30.27S

$$


USA.gov is the U.S. government's official web portal to all federal, state and local government web resources and services.